Regional Weather Roundup
Issued by NWS Nashville, TN

Current Version | Previous Version | Text Only | Print | Product List | Glossary On
Versions: 1 2 3 4 5 6 7 8 9 10 11 12 13 14 15 16 17 18 19 20 21 22 23 24 25 26 27 28 29 30 31 32 33 34 35 36 37 38 39 40 41 42 43 44 45 46 47 48 49 50
000
ASUS44 KOHX 281115
RWROHX
MIDDLE TENNESSEE HOURLY WEATHER ROUNDUP
NATIONAL WEATHER SERVICE NASHVILLE TN
500 AM CST FRI NOV 28 2014

NOTE: "FAIR" INDICATES FEW OR NO CLOUDS BELOW 12,000 FEET WITH
NO SIGNIFICANT WEATHER AND/OR OBSTRUCTIONS TO VISIBILITY.

* THESE REPORTS ARE NOT UNDER NWS QUALITY CONTROL AND MAY NOT
  REPORT WEATHER SUCH AS PRECIPITATION AND FOG.


TNZ005>011-023>034-057-059-062>066-078-080-281200
...NORTHERN MIDDLE TENNESSEE...

CITY           SKY/WX    TMP DP  RH WIND       PRES   REMARKS
CLARKSVILLE    CLEAR     24  22  91 SE3       30.44S
CROSSVILLE     CLEAR     21  16  81 CALM      30.35S
GALLATIN         N/A     22  21  96 CALM      30.43F
DICKSON        CLEAR     21  19  93 CALM      30.42R
LEBANON        CLEAR     23  19  85 CALM      30.41F
NASHVILLE      CLEAR     23  20  88 W3        30.46R
WEST NASHVILLE   N/A     21  21 100 NW3       30.47R
PORTLAND       CLEAR     21  19  93 CALM      30.42S
SPARTA         CLEAR     23  19  86 CALM      30.41R
$$
TNZ056-058-060-061-075>077-079-093>097-281200
...SOUTHERN MIDDLE TENNESSEE...

CITY           SKY/WX    TMP DP  RH WIND       PRES   REMARKS
COLUMBIA       CLEAR     19  19 100 CALM      30.42S
LEWISBURG      CLEAR     20  17  88 CALM      30.43S
MCMINNVILLE    CLEAR     19  18  93 CALM      30.41S
MURFREESBORO   CLEAR     23  20  89 CALM      30.43S
SHELBYVILLE    CLEAR     19  19 100 CALM      30.43S
TULLAHOMA      CLEAR     18  14  86 CALM      30.40S
WINCHESTER     CLEAR     19  18  93 CALM      30.40F
$$


...KEY TO REMARKS...
VSB - VISIBILITY IN MILES
WCI - WIND CHILL INDEX
HX  - HEAT INDEX



USA.gov is the U.S. government's official web portal to all federal, state and local government web resources and services.